| DS18B20 | SHTC3 | PZEM-004T | WiFi | ||||||||
|---|---|---|---|---|---|---|---|---|---|---|---|
| ID | Date d/m/Y & Time | data1 สูง | data2 ต่ำ | data3 นอก | temp pcb | hum pcb | Volt | Amp | Watt | rssi | Time |
| 6493 | 25/07/2026 16:25:34 | 30.8  | 30.4  | 30.2  | 31.7  | 65.7  | 232.9  | 0.04  | 4.4  | -81  | 16:25 |
| 6492 | 25/07/2026 16:20:51 | 30.8  | 30.4  | 30.0  | 31.8  | 65.8  | 235.2  | 0.04  | 4.4  | -83  | 16:20 |
| 6491 | 25/07/2026 16:16:08 | 30.8  | 30.3  | 29.7  | 31.7  | 65.8  | 234.5  | 0.04  | 4.4  | -82  | 16:16 |
| 6490 | 25/07/2026 16:11:25 | 30.8  | 30.3  | 29.9  | 31.6  | 65.8  | 233.5  | 0.04  | 4.4  | -80  | 16:11 |
| 6489 | 25/07/2026 16:06:42 | 30.7  | 30.3  | 30.2  | 31.7  | 65.9  | 234.1  | 0.04  | 4.4  | -80  | 16:06 |
| 6488 | 25/07/2026 16:01:59 | 30.7  | 30.3  | 30.1  | 31.7  | 66.0  | 233.8  | 0.04  | 4.4  | -80  | 16:01 |
| 6487 | 25/07/2026 15:57:14 | 30.6  | 30.2  | 30.0  | 31.6  | 66.0  | 234.1  | 0.04  | 4.4  | -81  | 15:57 |
| 6486 | 25/07/2026 15:52:31 | 30.6  | 30.2  | 30.2  | 31.7  | 66.2  | 233.7  | 0.04  | 4.4  | -79  | 15:52 |
| 6485 | 25/07/2026 15:47:48 | 30.6  | 30.2  | 29.9  | 31.6  | 66.2  | 234.4  | 0.04  | 4.4  | -80  | 15:47 |
| 6484 | 25/07/2026 15:43:04 | 30.6  | 30.2  | 29.4  | 31.6  | 66.2  | 235.1  | 0.04  | 4.4  | -78  | 15:43 |
| 6483 | 25/07/2026 15:38:21 | 30.6  | 30.2  | 29.0  | 31.6  | 66.1  | 234.0  | 0.04  | 4.4  | -80  | 15:38 |
| 6482 | 25/07/2026 15:33:38 | 30.6  | 30.2  | 28.9  | 31.5  | 66.0  | 234.0  | 0.04  | 4.4  | -81  | 15:33 |
| 6481 | 25/07/2026 15:28:55 | 30.6  | 30.2  | 29.0  | 31.6  | 66.1  | 232.6  | 0.04  | 4.4  | -81  | 15:28 |
| 6480 | 25/07/2026 15:24:12 | 30.6  | 30.2  | 29.2  | 31.6  | 65.9  | 234.0  | 0.04  | 4.4  | -80  | 15:24 |
| 6479 | 25/07/2026 15:19:28 | 30.6  | 30.2  | 29.0  | 31.6  | 66.0  | 234.0  | 0.04  | 4.4  | -78  | 15:19 |
| 6478 | 25/07/2026 15:14:45 | 30.6  | 30.2  | 28.8  | 31.6  | 65.8  | 234.2  | 0.04  | 4.4  | -80  | 15:14 |
| 6477 | 25/07/2026 15:10:02 | 30.6  | 30.2  | 28.5  | 31.6  | 65.9  | 234.4  | 0.04  | 4.4  | -80  | 15:10 |
| 6476 | 25/07/2026 15:05:20 | 30.6  | 30.2  | 28.0  | 31.5  | 66.0  | 235.1  | 0.04  | 4.4  | -79  | 15:05 |
| 6475 | 25/07/2026 15:00:37 | 30.8  | 30.2  | 27.8  | 31.9  | 66.0  | 234.4  | 0.04  | 4.4  | -78  | 15:00 |
| 6474 | 25/07/2026 14:55:53 | 30.8  | 30.2  | 28.0  | 31.8  | 66.0  | 231.5  | 0.04  | 4.4  | -79  | 14:55 |
| 6473 | 25/07/2026 14:51:10 | 30.8  | 30.2  | 28.7  | 31.8  | 65.8  | 233.2  | 0.04  | 4.4  | -79  | 14:51 |
| 6472 | 25/07/2026 14:46:27 | 30.8  | 30.2  | 29.4  | 31.9  | 66.1  | 232.7  | 0.04  | 4.4  | -81  | 14:46 |
| 6471 | 25/07/2026 14:41:44 | 30.8  | 30.2  | 30.2  | 31.8  | 65.9  | 230.5  | 0.04  | 4.4  | -78  | 14:41 |
| 6470 | 25/07/2026 14:37:00 | 30.8  | 30.2  | 30.3  | 31.9  | 66.0  | 232.9  | 0.04  | 4.4  | -82  | 14:37 |